Regional Weather Roundup
Issued by NWS

Home | Current Version | Previous Version | Graphics & Text | Print | Product List | Glossary Off
Versions: 1 2 3 4 5 6 7 8 9 10 11 12 13 14 15 16 17 18 19 20 21 22 23 24 25 26 27 28 29 30 31 32 33 34 35 36 37 38 39 40 41 42 43 44 45 46 47 48 49 50

000
ASUS43 KLOT 131810
RWRIL

ILLINOIS REGIONAL WEATHER ROUNDUP
NATIONAL WEATHER SERVICE CHICAGO/ROMEOVILLE IL
100 PM CDT SUN JUL 13 2014

NOTE: "FAIR" INDICATES FEW OR NO CLOUDS BELOW 12,000 FEET WITH NO
SIGNIFICANT WEATHER AND/OR OBSTRUCTIONS TO VISIBILITY.

* THESE STATIONS ARE NOT UNDER NWS QUALITY CONTROL. THEY ALSO MAY NOT
  REPORT WEATHER SUCH AS PRECIPITATION OR FOG.

ILZ001-002-007-009-015-016-024-131900-
NORTHWEST ILLINOIS

CITY           SKY/WX    TMP DP  RH WIND       PRES   REMARKS
MOLINE         SUNNY     81  66  60 NW7       29.96F HX  83
6HR MIN TEMP:  67; 6HR MAX TEMP:  82;

STERLING*      SUNNY     81  70  69 NW9       29.95F HX  84
SAVANNA*       SUNNY     81  66  60 W6        29.95F HX  83
$$

ILZ003-004-008-010-011-017-018-131900-
NORTH CENTRAL ILLINOIS

CITY           SKY/WX    TMP DP  RH WIND       PRES   REMARKS
ROCKFORD       MOSUNNY   82  66  58 W9        29.95F HX  84
6HR MIN TEMP:  65; 6HR MAX TEMP:  82;

FREEPORT*      SUNNY     78  67  69 W7        29.97F HX  80
ROCHELLE*      SUNNY     78  65  63 W7        29.95F HX  80
DE KALB*       SUNNY     77  65  65 NW7       29.96F
PERU*          SUNNY     78  66  66 NW10      29.96F HX  80
$$

ILZ005-006-012>014-019>023-131900-
NORTHEAST ILLINOIS

CITY           SKY/WX    TMP DP  RH WIND       PRES   REMARKS
CHICAGO-OHARE  MOSUNNY   81  61  50 VRB7      29.93F HX  82
6HR MIN TEMP:  68; 6HR MAX TEMP:  81;

CHICAGO-MIDWAY MOSUNNY   81  66  60 NW12      29.93F HX  83
6HR MIN TEMP:  71; 6HR MAX TEMP:  81;

AURORA         SUNNY     79  66  64 NW8       29.95F HX  81
6HR MIN TEMP:  68; 6HR MAX TEMP:  79;

LANSING*       MOSUNNY   80  65  59 W8        29.94F HX  81
JOLIET*        MOSUNNY   78  65  63 W6        29.96S HX  80
WAUKEGAN       SUNNY     81  62  52 VRB6      29.91F HX  82
6HR MIN TEMP:  65; 6HR MAX TEMP:  81;

DUPAGE AIRPORT SUNNY     80  63  55 VRB7      29.94F HX  81
6HR MIN TEMP:  68; 6HR MAX TEMP:  80;

KANKAKEE*      PTSUNNY   77  68  72 NW8       29.96F
WHEELING       SUNNY     83  62  49 W9        29.93F HX  84
6HR MIN TEMP:  68; 6HR MAX TEMP:  83;

MORRIS*        MOSUNNY   79  69  71 NW6       29.95F HX  81
ROMEOVILLE*    MOSUNNY   78  67  67 NW10G16   29.95F HX  80
NORTHERLY ISL    N/A     79  61  53 W7          N/A  HX  80
$$

LMZ740>746-131900-
SOUTHERN LAKE MICHIGAN

STATION/POSITION SKY/WX   TEMP    WIND        PRES    VSBY  WAVE
                          AIR SEA DIR/SP/G                  HT/PER
                          (F)     (DEG/KT/KT) (MB)    (MI)  (FT/S)
SOUTHERN BUOY              64 62  200/ 10/ 12 1013.1F         1/ 3
WAUKEGAN HARBOR            79     290/  4/ 10 1014.2F
HARRISON CRIB              74      60/  2/  3   N/A
BURNHAM HARBOR             80     290/  8/ 11   N/A
CALUMET HARBOR             80     300/  6/ 11 1014.4F
MICHIGAN CITY              73     260/  7/  8   N/A
$$

ILZ025>027-034>036-040-047-049-050-058-095>099-131900-
WEST-CENTRAL ILLINOIS

CITY           SKY/WX    TMP DP  RH WIND       PRES   REMARKS
QUINCY         PTSUNNY   81  69  67 NW7       29.99S HX  84
GALESBURG*     SUNNY     81  70  68 W5        29.97F HX  85
MACOMB*        PTSUNNY   76  70  80 N6        30.00S
JACKSONVILLE*  PTSUNNY   82  71  71 CALM      30.00S HX  86
PITTSFIELD*    PTSUNNY   80  70  70 N3        30.00F HX  84
$$

ILZ028>032-037-038-041>044-048-051>054-059>061-131900-
CENTRAL ILLINOIS

CITY           SKY/WX    TMP DP  RH WIND       PRES   REMARKS
PONTIAC        PTSUNNY   81  70  69 NW8       29.96F HX  84
BLOOMINGTON    CLOUDY    77  65  66 VRB3      29.99S
DECATUR        CLOUDY    79  72  79 SW8       29.98S HX  82
PEORIA         PTSUNNY   80  68  66 VRB5      29.97F HX  83
6HR MIN TEMP:  72; 6HR MAX TEMP:  80;

LACON*         MOSUNNY   78  67  71 NW7       29.95F
LINCOLN*       CLOUDY    81  69  66 NW3       29.94S HX  84
SPRINGFIELD    CLOUDY    83  70  64 NW6       29.98R HX  87
6HR MIN TEMP:  73; 6HR MAX TEMP:  84; 6HR PCP: TRACE;

TAYLORVILLE    CLOUDY    77  72  83 W6        29.99S
$$

ILZ033-039-045-046-055>057-062-063-131900-
EAST-CENTRAL ILLINOIS

CITY           SKY/WX    TMP DP  RH WIND       PRES   REMARKS
CHAMPAIGN      CLOUDY    80  71  74 NW5       29.97F HX  84
RANTOUL*       PTSUNNY   81  67  62 CALM      29.98S HX  83
MATTOON        CLOUDY    78  71  79 W10       29.98F HX  80
PARIS*         PTSUNNY   79  73  81 W8        29.99S HX  83
$$

ILZ079-100>102-131900-
SOUTHWEST ILLINOIS

CITY           SKY/WX    TMP DP  RH WIND       PRES   REMARKS
ALTON          MOSUNNY   86  73  66 W9        29.99S HX  93
BELLEVILLE     MOSUNNY   89  74  61 W7        29.97S HX  97
CAHOKIA*       MOSUNNY   89  71  55 W8        29.97S HX  95
SPARTA*        SUNNY     86  72  62 SW8       29.99S HX  92
$$

ILZ064>066-069>071-074>076-080>082-084>086-088>090-092>094-131900-
SOUTH-CENTRAL ILLINOIS

CITY           SKY/WX    TMP DP  RH WIND       PRES   REMARKS
CARBONDALE     MOSUNNY   90  71  53 SW8       29.98F HX  96
6HR MIN TEMP:  77; 6HR MAX TEMP:  91;

CAIRO*         MOSUNNY   92  74  57 S9        30.01F HX 102
MARION         MOSUNNY   91  72  52 SW12        N/A  HX  98
MT. VERNON     MOSUNNY   90  72  55 SW9G16    29.98S HX  96
CENTRALIA*     MOSUNNY   92  69  47 W10       29.98S HX  96
SALEM*         MOSUNNY   89  73  60 W8        29.98S HX  96
METROPOLIS*    SUNNY     91  70  49 SW10      30.00F HX  97
$$

ILZ067-068-072-073-078-083-087-091-131900-
SOUTHEAST ILLINOIS

CITY           SKY/WX    TMP DP  RH WIND       PRES   REMARKS
FLORA*         MOSUNNY   88  69  54 W7        29.97F HX  92
HARRISBURG*    MOSUNNY   90  74  59 SW12      29.99F HX  98
ROBINSON*      MOSUNNY   87  74  65 SW6       29.97F HX  96
CARMI*         MOSUNNY   91  76  61 S7G17     29.97F HX 103
$$

ABBREVIATIONS USED IN REMARKS
   TC - TEMPERATURE IN CELSIUS
  WCI - WIND CHILL INDEX
   HX - HEAT INDEX
  VSB - VISIBILITY
$$



USA.gov is the U.S. government's official web portal to all federal, state and local government web resources and services.